This demonstration page uses our WeatherBlox Daily Observations layout. Learn more.

Left ArrowRight Arrow

Hourly Observations for June 16, 2017

Temp ( °F °C ) Dew Point ( °F °C ) Humidity (%) Winds ( mph kmh ) Pressure ( in mb ) Visibility ( mi km ) Precip ( " mm )
12:34 am 00:34 Mostly Cloudy with Light Rain 74 23.3 64 17.8 71 71 W 22 35 29.91 1013 10 16 0.00 0.03
12:52 am 00:52 Mostly Cloudy with Light Rain 71 21.7 64 17.8 79 79 W 17 28 29.93 1014 5 8 0.07 1.78
1:52 am 01:52 Clear 70 21.1 64 17.8 82 82 WSW 8 13 29.90 1013 10 16 0.00 0.03
2:52 am 02:52 Clear 68 20 64 17.8 87 87 ESE 8 13 29.83 1010 10 16 0.00 0.00
3:52 am 03:52 Mostly Cloudy with Light Rain 69 20.6 63 17.2 81 81 NW 13 20 29.87 1011 10 16 0.00 0.03
4:52 am 04:52 Mostly Cloudy 69 20.6 63 17.2 81 81 E 6 9 29.82 1010 10 16 0.00 0.03
5:52 am 05:52 Mostly Clear 69 20.6 63 17.2 81 81 ENE 8 13 29.82 1010 10 16 0.00 0.00
6:52 am 06:52 Sunny 69 20.6 63 17.2 81 81 VRB 3 6 29.84 1011 10 16 0.00 0.00
7:52 am 07:52 Sunny 71 21.7 63 17.2 76 76 Calm 29.85 1011 10 16 0.00 0.00
8:52 am 08:52 Sunny 75 23.9 64 17.8 69 69 Calm 29.85 1011 10 16 0.00 0.00
9:52 am 09:52 Sunny 77 25 61 16.1 58 58 SSW 3 6 29.85 1011 10 16 0.00 0.00
10:52 am 10:52 Sunny 80 26.7 61 16.1 52 52 SSW 8 13 29.86 1011 10 16 0.00 0.00
11:52 am 11:52 Sunny 82 27.8 65 18.3 56 56 S 9 15 29.85 1011 10 16 0.00 0.00
12:52 pm 12:52 Sunny 84 28.9 65 18.3 53 53 S 8 13 29.84 1011 10 16 0.00 0.00
1:52 pm 13:52 Sunny 86 30 67 19.4 53 53 S 12 19 29.82 1010 10 16 0.00 0.00
2:52 pm 14:52 Sunny 86 30 67 19.4 53 53 S 10 17 29.80 1009 10 16 0.00 0.00
3:52 pm 15:52 Sunny 88 31.1 70 21.1 55 55 VRB 7 11 29.78 1009 10 16 0.00 0.00
4:52 pm 16:52 Sunny 87 30.6 70 21.1 57 57 SSW 9 15 29.76 1008 10 16 0.00 0.00
5:52 pm 17:52 Sunny 88 31.1 71 21.7 57 57 S 8 13 29.74 1007 10 16 0.00 0.00
6:52 pm 18:52 Sunny 87 30.6 71 21.7 59 59 S 12 19 29.72 1007 10 16 0.00 0.00
7:52 pm 19:52 Sunny 85 29.4 72 22.2 65 65 SSE 9 15 29.71 1006 10 16 0.00 0.00
8:52 pm 20:52 Clear 82 27.8 71 21.7 69 69 SSE 10 17 29.71 1006 10 16 0.00 0.00
9:52 pm 21:52 Clear 81 27.2 72 22.2 74 74 SSE 13 20 29.71 1006 10 16 0.00 0.00
10:52 pm 22:52 Clear 79 26.1 72 22.2 79 79 SSE 15 24 29.71 1006 10 16 0.00 0.00
11:52 pm 23:52 Clear 78 25.6 71 21.7 79 79 SSE 13 20 29.72 1007 10 16 0.00 0.00

Powered by AerisWeather